Iridium 94 - Orbit

View from above orbital plane
View from above orbital plane
View from above satellite
View from above satellite

Ground track
Ground track

The orbit data is extracted from the following two-line orbital elements,

1 27374U 02005C   13142.46002954  .00000096  00000-0  27322-4 0   212
2 27374 086.3967 157.1733 0002824 203.5053 306.7684 14.34214361602859
Epoch (UTC): 22 May 2013 11:02:26
Eccentricity: 0.0002824
inclination: 86.3967°
perigee height: 775 km
apogee height: 780 km
right ascension of ascending node: 157.1733°
argument of perigee: 203.5053°
revolutions per day: 14.34214361
mean anomaly at epoch: 306.7684°
orbit number at epoch: 60285

The dashed part of the orbit path shows where the satellite is in the earth's shadow,  

Developed and maintained by Chris Peat, Heavens-Above GmbH. Please read the updated FAQ before sending e-mail. Imprint. DLR